| time (UTC) | temp C | wind direction | speed KPH | gust KPH | rain 1hr cm | rain 24hr cm | rain mn cm | humidity % | barometer mb |
| 20260505173100 | 12 | 306 | 1.6 | 9.7 | 0.00 | 0.08 | 0.08 | 72 | 1009.6 |
| 20260505171558 | 12 | 290 | 3.2 | 16.1 | 0.00 | 0.08 | 0.08 | 74 | 1009.5 |
| 20260505170054 | 12 | 176 | 4.8 | 14.5 | 0.00 | 0.08 | 0.08 | 76 | 1009.4 |
| 20260505164554 | 11 | 253 | 1.6 | 17.7 | 0.00 | 0.08 | 0.08 | 78 | 1009.3 |
| 20260505163052 | 10 | 205 | 0.0 | 14.5 | 0.00 | 0.08 | 0.08 | 80 | 1009.1 |
| 20260505161551 | 10 | 224 | 0.0 | 6.4 | 0.00 | 0.08 | 0.08 | 82 | 1009.1 |
| 20260505153101 | 9 | 300 | 3.2 | 9.7 | 0.03 | 0.08 | 0.08 | 85 | 1009.0 |
| 20260505151549 | 8 | 281 | 0.0 | 4.8 | 0.03 | 0.08 | 0.08 | 84 | 1008.9 |
| 20260505124544 | 7 | 30 | 4.8 | 14.5 | 0.05 | 0.05 | 0.05 | 81 | 1008.5 |
| 20260505123052 | 7 | 290 | 4.8 | 14.5 | 0.05 | 0.05 | 0.05 | 79 | 1009.3 |
| 20260505121539 | 7 | 300 | 4.8 | 17.7 | 0.03 | 0.03 | 0.03 | 78 | 1009.6 |
| 20260505120043 | 8 | 279 | 1.6 | 25.7 | 0.00 | 0.00 | 0.00 | 75 | 1009.1 |
| 20260505114533 | 9 | 300 | 8.0 | 37.0 | 0.00 | 0.00 | 0.00 | 71 | 1008.9 |
| 20260505113030 | 10 | 286 | 14.5 | 27.4 | 0.00 | 0.00 | 0.00 | 69 | 1008.8 |
| 20260505111532 | 10 | 302 | 6.4 | 22.5 | 0.00 | 0.00 | 0.00 | 75 | 1008.5 |
| 20260505101529 | 9 | 292 | 4.8 | 14.5 | 0.00 | 0.00 | 0.00 | 77 | 1008.5 |
| 20260505100029 | 9 | 319 | 3.2 | 8.0 | 0.00 | 0.00 | 0.00 | 77 | 1008.3 |
| 20260505094521 | 8 | 296 | 0.0 | 4.8 | 0.00 | 0.00 | 0.00 | 77 | 1008.9 |
| 20260505093020 | 8 | 269 | 0.0 | 12.9 | 0.00 | 0.00 | 0.00 | 76 | 1008.4 |
| 20260505091520 | 8 | 336 | 1.6 | 4.8 | 0.00 | 0.00 | 0.00 | 76 | 1008.6 |
| 20260505090016 | 9 | 309 | 0.0 | 0.0 | 0.00 | 0.00 | 0.00 | 75 | 1008.5 |
| 20260505084515 | 9 | 309 | 0.0 | 4.8 | 0.00 | 0.00 | 0.00 | 74 | 1008.5 |
| 20260505083018 | 9 | 323 | 0.0 | 4.8 | 0.00 | 0.00 | 0.00 | 74 | 1008.6 |
| 20260505081512 | 9 | 321 | 0.0 | 4.8 | 0.00 | 0.00 | 0.00 | 73 | 1008.9 |
| 20260505080017 | 10 | 313 | 1.6 | 6.4 | 0.00 | 0.00 | 0.00 | 72 | 1009.1 |
| 20260505074508 | 10 | 13 | 0.0 | 0.0 | 0.00 | 0.00 | 0.00 | 70 | 1009.3 |
| 20260505073059 | 10 | 13 | 0.0 | 3.2 | 0.00 | 0.00 | 0.00 | 70 | 1009.2 |
| 20260505071505 | 10 | 19 | 0.0 | 3.2 | 0.00 | 0.00 | 0.00 | 69 | 1009.1 |
| 20260505070004 | 10 | 321 | 0.0 | 4.8 | 0.00 | 0.00 | 0.00 | 68 | 1008.9 |
| 20260505064502 | 10 | 278 | 0.0 | 4.8 | 0.00 | 0.00 | 0.00 | 67 | 1009.2 |
| 20260505063101 | 10 | 278 | 0.0 | 6.4 | 0.00 | 0.00 | 0.00 | 67 | 1009.3 |
| 20260505061559 | 11 | 309 | 0.0 | 8.0 | 0.00 | 0.00 | 0.00 | 67 | 1008.8 |
| 20260505060100 | 11 | 329 | 1.6 | 6.4 | 0.00 | 0.00 | 0.00 | 66 | 1008.4 |
| 20260505054553 | 11 | 319 | 1.6 | 6.4 | 0.00 | 0.00 | 0.00 | 66 | 1008.9 |
| 20260505053052 | 11 | 360 | 1.6 | 6.4 | 0.00 | 0.00 | 0.00 | 65 | 1009.6 |
| 20260505051551 | 11 | 11 | 1.6 | 12.9 | 0.00 | 0.00 | 0.00 | 65 | 1009.8 |
| 20260505041554 | 12 | 325 | 9.7 | 20.9 | 0.00 | 0.00 | 0.00 | 61 | 1009.5 |
| 20260505040049 | 12 | 333 | 9.7 | 19.3 | 0.00 | 0.00 | 0.00 | 59 | 1009.7 |
| 20260505034548 | 12 | 319 | 8.0 | 25.7 | 0.00 | 0.00 | 0.00 | 57 | 1009.8 |
| 20260505033048 | 13 | 324 | 11.3 | 24.1 | 0.00 | 0.00 | 0.00 | 56 | 1009.7 |
| 20260505031547 | 13 | 304 | 9.7 | 22.5 | 0.00 | 0.00 | 0.00 | 54 | 1009.6 |
| 20260505030105 | 13 | 319 | 12.9 | 32.2 | 0.00 | 0.00 | 0.00 | 49 | 1009.1 |
| 20260505024549 | 14 | 74 | 14.5 | 24.1 | 0.00 | 0.00 | 0.00 | 47 | 1008.8 |
| 20260505023044 | 15 | 291 | 17.7 | 32.2 | 0.00 | 0.00 | 0.00 | 41 | 1008.7 |
| 20260505021544 | 16 | 315 | 11.3 | 25.7 | 0.00 | 0.00 | 0.00 | 35 | 1008.7 |
| 20260505020044 | 17 | 277 | 9.7 | 24.1 | 0.00 | 0.00 | 0.00 | 33 | 1008.5 |
| 20260505014603 | 17 | 317 | 3.2 | 20.9 | 0.00 | 0.00 | 0.00 | 33 | 1008.4 |
| 20260505013050 | 17 | 289 | 12.9 | 27.4 | 0.00 | 0.00 | 0.00 | 31 | 1008.2 |
| 20260505011545 | 18 | 321 | 14.5 | 29.0 | 0.00 | 0.00 | 0.00 | 30 | 1008.1 |
| 20260505010053 | 18 | 217 | 3.2 | 20.9 | 0.00 | 0.00 | 0.00 | 28 | 1007.8 |
| 20260505004549 | 20 | 296 | 6.4 | 22.5 | 0.00 | 0.00 | 0.00 | 27 | 1007.8 |
| 20260505003054 | 20 | 305 | 3.2 | 24.1 | 0.00 | 0.00 | 0.00 | 25 | 1007.4 |
| 20260505001544 | 20 | 205 | 3.2 | 16.1 | 0.00 | 0.00 | 0.00 | 24 | 1007.3 |
| 20260505000041 | 20 | 153 | 1.6 | 17.7 | 0.00 | 0.00 | 0.00 | 24 | 1007.3 |
| 20260504234539 | 20 | 191 | 3.2 | 19.3 | 0.00 | 0.00 | 0.00 | 23 | 1007.8 |
| 20260504233039 | 21 | 178 | 6.4 | 17.7 | 0.00 | 0.00 | 0.00 | 23 | 1007.7 |
| 20260504231537 | 21 | 292 | 4.8 | 25.7 | 0.00 | 0.00 | 0.00 | 23 | 1007.9 |
| 20260504230037 | 21 | 283 | 3.2 | 17.7 | 0.00 | 0.00 | 0.00 | 23 | 1007.9 |
| 20260504224539 | 22 | 219 | 6.4 | 19.3 | 0.00 | 0.00 | 0.00 | 23 | 1008.1 |
| 20260504223056 | 22 | 186 | 3.2 | 12.9 | 0.00 | 0.00 | 0.00 | 23 | 1008.1 |
| 20260504221541 | 22 | 207 | 3.2 | 19.3 | 0.00 | 0.00 | 0.00 | 24 | 1008.2 |
| 20260504220037 | 22 | 280 | 3.2 | 16.1 | 0.00 | 0.00 | 0.00 | 22 | 1008.2 |
| 20260504214533 | 22 | 250 | 4.8 | 19.3 | 0.00 | 0.00 | 0.00 | 23 | 1008.4 |
| 20260504213031 | 23 | 286 | 4.8 | 20.9 | 0.00 | 0.00 | 0.00 | 25 | 1008.7 |
| 20260504211538 | 22 | 314 | 6.4 | 20.9 | 0.00 | 0.00 | 0.00 | 26 | 1008.8 |
| 20260504210026 | 22 | 278 | 6.4 | 25.7 | 0.00 | 0.00 | 0.00 | 24 | 1009.1 |
| 20260504204525 | 22 | 204 | 6.4 | 27.4 | 0.00 | 0.00 | 0.00 | 22 | 1009.4 |
| 20260504203024 | 22 | 287 | 3.2 | 16.1 | 0.00 | 0.00 | 0.00 | 23 | 1009.7 |
| 20260504201522 | 22 | 223 | 8.0 | 16.1 | 0.00 | 0.00 | 0.00 | 23 | 1009.6 |
| 20260504200023 | 22 | 189 | 6.4 | 25.7 | 0.00 | 0.00 | 0.00 | 23 | 1009.8 |
| 20260504194521 | 22 | 263 | 6.4 | 22.5 | 0.00 | 0.00 | 0.00 | 24 | 1009.9 |
| 20260504193021 | 22 | 186 | 3.2 | 16.1 | 0.00 | 0.00 | 0.00 | 24 | 1010.0 |
| 20260504191518 | 22 | 244 | 6.4 | 25.7 | 0.00 | 0.00 | 0.00 | 23 | 1010.0 |
| 20260504190016 | 22 | 255 | 8.0 | 14.5 | 0.00 | 0.00 | 0.00 | 22 | 1010.2 |
| 20260504184514 | 22 | 269 | 4.8 | 32.2 | 0.00 | 0.00 | 0.00 | 25 | 1010.8 |
| 20260504183013 | 21 | 202 | 9.7 | 22.5 | 0.00 | 0.00 | 0.00 | 22 | 1010.8 |
| 20260504181510 | 21 | 274 | 4.8 | 25.7 | 0.00 | 0.00 | 0.00 | 28 | 1010.7 |
| 20260504180009 | 21 | 297 | 8.0 | 16.1 | 0.00 | 0.00 | 0.00 | 27 | 1010.8 |
| 20260504174509 | 21 | 331 | 6.4 | 24.1 | 0.00 | 0.00 | 0.00 | 30 | 1011.1 |